Location: Kielce
(50.8833°N, 20.6167°E)
Time: 13:52:49
(UTC+02:00)

Vanguard 2 Rocket - Pass Details

Date: 23 April 2021
Orbit: 553 x 3326 km, 32.9° (Epoch: 05 May)

Event Time Altitude Azimuth Distance (km) Brightness Sun altitude
Rises 20:26:28 0° 273° (W) 7,262 12.8 -6.5°
Reaches altitude 10° 20:37:24 10° 246° (WSW) 5,822 11.5 -8.0°
Maximum altitude 20:41:16 11° 233° (SW) 5,490 11.1 -8.5°
Drops below altitude 10° 20:44:52 10° 220° (SW) 5,320 10.9 -9.0°
Sets 20:53:08 0° 190° (S) 5,576 10.7 -10.1°
